Regional Weather Roundup
Issued by NWS

Home | Current Version | Previous Version | Text Only | Print | Product List | Glossary Off
Versions: 1 2 3 4 5 6 7 8 9 10 11 12 13 14 15 16 17 18 19 20 21 22 23 24 25 26 27 28 29 30 31 32 33 34 35 36 37 38 39 40 41 42 43 44 45 46 47 48 49 50

000
ASUS43 KMPX 181301
RWRMN
WEATHER ROUNDUP FOR MINNESOTA
NATIONAL WEATHER SERVICE TWIN CITIES/CHANHASSEN MN
700 AM CST MON DEC 18 2017


NOTE: "FAIR" INDICATES FEW OR NO CLOUDS BELOW 12,000 FEET WITH NO
SIGNIFICANT WEATHER AND/OR OBSTRUCTIONS TO VISIBILITY. N/A MEANS
CURRENT SKY AND/OR WEATHER CONDITIONS ARE NOT AVAILABLE.

MNZ060>063-068>070-181400-
   Twin Cities Metro

CITY           SKY/WX    TMP DP  RH WIND       PRES   REMARKS
TWIN CITIES    MOCLDY    28  26  92 S6        29.82F FOG     WCI  22
ST PAUL        CLOUDY    26  24  92 SE6       29.83F FOG     WCI  19
CRYSTAL        PTCLDY    26  22  84 S6        29.79F WCI  19
BLAINE         PTCLDY    27  27 100 S8        29.79F FOG     WCI  18
LAKEVILLE      CLOUDY    25  25 100 S5        29.82S FOG     WCI  19
EDEN PRAIRIE   PTCLDY    26  23  88 S9        29.80F FOG     WCI  17
SOUTH ST PAUL  CLOUDY    26  26  99 S5        29.82S FOG     WCI  21
LAKE ELMO      FAIR      27  27 100 S7        29.82S FOG     WCI  19
$$
MNZ001>005-007-008-013>017-022>024-027-028-181400-
   Northwest Minnesota

CITY           SKY/WX    TMP DP  RH WIND       PRES   REMARKS
BEMIDJI        CLOUDY    28  27  95 S6        29.61S WCI  22
HALLOCK        CLOUDY    28  27  93 S14       29.52F WCI  17
ROSEAU         CLEAR     30  25  80 SW13      29.52F WCI  20
WARROAD        CLOUDY    28  25  86 SW13G20   29.52S WCI  18
CROOKSTON      CLOUDY    27  25  93 SW12      29.60S WCI  16
FOSSTON        CLOUDY    25  25 100 S14       29.61S WCI  13
DETROIT LAKES  CLOUDY    30  28  93 SW8       29.66S WCI  23
MOORHEAD       CLEAR     27  25  93 CALM      29.65F
PARK RAPIDS    CLOUDY    23  21  92 S7        29.64S FOG     WCI  15
MAHNOMEN       FAIR      25  24  95 S10       29.62S WCI  15
$$
MNZ006-009>011-018-025>026-181400-
   North Central Minnesota

CITY           SKY/WX    TMP DP  RH WIND       PRES   REMARKS
BAUDETTE       PTCLDY    28  26  92 SW8       29.53F WCI  20
FLAG ISLAND    CLOUDY    25  23  93 S8        29.49F WCI  16
INTL FALLS     CLOUDY    29  26  89 SW13G20   29.56F FOG     WCI  19
WASKISH        CLOUDY    30  28  93 SW10      29.58S WCI  21
BIG FORK       CLOUDY    28  27  93 S10       29.62S FOG     WCI  19
LONGVILLE      CLOUDY    25  25 100 S6        29.66S FOG     WCI  18
GRAND RAPIDS   CLOUDY    24  22  91 S10       29.67S WCI  14
CRANE LAKE     CLOUDY    28  27  93 S7        29.62F WCI  21
ORR            CLOUDY    27  25  93 S7G17     29.59F WCI  19
COOK           CLOUDY    27  25  93 S7        29.63F WCI  19
WALKER         PTSUNNY   28  26  91 SW9       29.64S WCI  19
$$
MNZ012-019>021-037-181400-
   Northeast Minnesota

CITY           SKY/WX    TMP DP  RH WIND       PRES   REMARKS
DULUTH         MOCLDY    23  22  96 SW16      29.68F FOG     WCI  10
ELY            CLOUDY    27  27 100 S8        29.63S WCI  18
HIBBING        CLOUDY    24  21  88 S6        29.66S WCI  17
EVELETH        CLOUDY    24  20  84 SW7       29.67R WCI  16
DULUTH HARBOR  CLOUDY    27  23  86 SW6       29.75F FOG     WCI  20
TWO HARBORS    CLOUDY    27  21  80 SW7       29.69F HAZE    WCI  19
SILVER BAY     CLOUDY    25  25 100 SW8       29.68F WCI  16
GRAND MARAIS     N/A     28  24  85 W3        29.72F
G MARAIS ARPRT CLOUDY    18  14  86 CALM      29.65F FOG
$$
MNZ029>031-032-039>041-046>048-054>057-064-181400-
   West Central Minnesota

CITY           SKY/WX    TMP DP  RH WIND       PRES   REMARKS
FERGUS FALLS   CLEAR     27  27 100 S9        29.71F WCI  17
WHEATON        CLOUDY    28  25  86 SW7       29.72S WCI  21
MORRIS         CLOUDY    27  25  93 S6        29.71S WCI  20
ALEXANDRIA     CLOUDY    29  26  89 S13       29.70F WCI  19
ELBOW LAKE     FAIR      25  24  97 S9        29.70S WCI  15
WADENA         CLOUDY    27  27 100 S8        29.66S WCI  18
GLENWOOD       CLOUDY    27  25  93 SW9       29.72F WCI  17
APPLETON       CLOUDY    30  27  86 S6        29.74F WCI  24
BENSON         CLEAR     27  25  93 SW8       29.74F WCI  18
ORTONVILLE     CLOUDY    30  27  86 CALM      29.72F
MADISON        CLOUDY    34  28  80 SW7       29.74F WCI  28
WILLMAR        FAIR      30  27  86 S3        29.76S
$$
MNZ033>034-036-042>043-049>051-058-059-181400-
   Central Minnesota

CITY           SKY/WX    TMP DP  RH WIND       PRES   REMARKS
ST CLOUD       CLOUDY    24  22  91 S8        29.75F FOG     WCI  15
SAUK CENTRE    FAIR      27  24  91 S10       29.72F WCI  17
PAYNESVILLE    CLOUDY    28  26  96 SW3       29.75S
AITKIN         CLOUDY    23  21  93 S6        29.68F WCI  16
PINE RIVER     CLOUDY    19  19 100 SE3       29.71S FOG
BRAINERD       CLOUDY    28  23  81 S9        29.70F WCI  19
STAPLES        CLOUDY    25  25 100 S8        29.67F WCI  16
LONG PRAIRIE   FAIR      28  25  86 S9        29.71F WCI  20
LITTLE FALLS   CLOUDY    28  21  74 S6        29.72F WCI  22
LITCHFIELD     CLOUDY    28  28 100 SW3       29.77S
BUFFALO        PTCLDY    27  24  91 S5        29.79F WCI  21
MAPLE LAKE     CLEAR     26  25  96 S5        29.78S FOG     WCI  20
HUTCHINSON     CLOUDY    29  27  94 S5        29.79S WCI  23
$$
MNZ037-044-045-052-053-181400-
   East Central Minnesota

CITY           SKY/WX    TMP DP  RH WIND       PRES   REMARKS
PRINCETON      CLOUDY    27  25  93 S6        29.76F FOG     WCI  20
MORA           CLOUDY    25  23  93 S5        29.77F FOG     WCI  19
CAMBRIDGE      CLOUDY    27  25  93 S8        29.77F FOG     WCI  18
RUSH CITY      CLOUDY    25  23  93 S9        29.77F FOG     WCI  15
MOOSE LAKE     CLOUDY    27  23  86 S7        29.72S FOG     WCI  19
HINCKLEY       CLOUDY    27  27 100 S6        29.76F FOG     WCI  20
CLOQUET        CLOUDY    25  21  86 S10       29.70F FOG     WCI  15
MCGREGOR       CLOUDY    27  23  86 S7        29.70F WCI  19
$$
MNZ071>073-080-081-089-090-097-098-181400-
   Southwest Minnesota

CITY           SKY/WX    TMP DP  RH WIND       PRES   REMARKS
MONTEVIDEO     CLOUDY    28  27  93 SW6       29.75F WCI  22
GRANITE FALLS  CLOUDY    29  26  89 S9        29.78S WCI  20
CANBY          MOCLDY    33  28  83 SW13G18   29.76R WCI  24
MARSHALL       CLOUDY    31  27  85 SW17      29.77S WCI  19
REDWOOD FALLS  CLOUDY    30  26  85 S10       29.78S WCI  21
OLIVIA         CLOUDY    30  27  86 SW8       29.77S WCI  23
PIPESTONE      CLOUDY    25  23  93 SW7       29.77S WCI  17
WINDOM           N/A     28  18  64 S9        29.79F WCI  20
WORTHINGTON    CLOUDY    27  25  92 SW12      29.81R WCI  17
JACKSON        CLOUDY    25  23  93 S10       29.82S WCI  15
SLAYTON        CLOUDY    27  25  91 SW12      29.79S WCI  17
$$
MNZ065>067-074>077-082>085-091>093-181400-
   South Central Minnesota

CITY           SKY/WX    TMP DP  RH WIND       PRES   REMARKS
MANKATO        CLOUDY    23  22  96 S6        29.83S FOG     WCI  16
NEW ULM        CLOUDY    27  25  93 S7        29.79F WCI  19
ST JAMES       CLOUDY    27  25  93 S13       29.82F WCI  16
FAIRMONT       CLOUDY    24  22  91 S7        29.83F WCI  16
GLENCOE        CLOUDY    28  28 100 S7        29.78F FOG     WCI  21
FARIBAULT      CLOUDY    25  23  93 S7        29.84S FOG     WCI  17
OWATONNA       CLOUDY    25  25 100 S10       29.83F FOG     WCI  15
WASECA         CLOUDY    23  23 100 S7        29.85S FOG     WCI  15
ALBERT LEA     FOG       25  25 100 S5        29.85S VSB 1   WCI  19
$$
MNZ078>079-086>088-094>096-181400-
   Southeast Minnesota

CITY           SKY/WX    TMP DP  RH WIND       PRES   REMARKS
ROCHESTER      CLOUDY    27  26  96 SW13      29.85R FOG     WCI  16
RED WING       CLEAR     27  23  86 S3        29.84S FOG
STANTON        CLEAR     27  25  90 S5        29.82S FOG     WCI  22
DODGE CENTER   FOG       27  25  93 S7        29.84S VSB 3/4 WCI  19
WINONA         CLOUDY    30  28  93 W5        29.90R WCI  25
AUSTIN         FOG       27  25  93 SW7       29.86S VSB 3/4 WCI  19
PRESTON        CLOUDY    26  25  96 SW5       29.87S FOG     WCI  21
$$
ABBREVIATIONS USED IN REMARKS
   TC - TEMPERATURES IN CELSIUS
  WCI - WIND CHILL INDEX
   HX - HEAT INDEX
  VSB - VISIBILITY
$$



USA.gov is the U.S. government's official web portal to all federal, state and local government web resources and services.